Back to catalog

STARLINK-35486

AliveCommunicationsVLEO
NORAD 66253·PAYLOAD·🇺🇸 United States

Launched Oct 29, 2025 from Cape Canaveral Space Force Station

Loading…

Next Passes (next 24 hours)

TLE

FreshSource: CelesTrak SupGP

Epoch: Sep 14, 2026, 21:03 UTC

1 66253C 25245V   26257.87756944 -.00034116  00000+0 -10972-2 0  2576
2 66253  53.1579 123.7531 0001366  80.5731 201.9257 15.31715588    17

Track STARLINK-35486 in real time with AllMySat

Download on the App Store